AEZ2381 LIMZ-LIEE

Flight info

Callsign AEZ2381
Flight time 1h 6m
Altitude 39000
Route LAGEN L50 UNITA M858 TORTU A9 CORSI M858 RAMEN M732 KOVAS
Aircraft B737/M-SDE2E3FGHIRWXY/LB1

Departure

Time 2026-05-05 12:06
Airport Cuneo International Airport (LIMZ)

Arrival

Time 2026-05-05 13:13
Airport Cagliari Elmas Airport (LIEE)
Time Latitude Longitude Altitude Speed Heading
2026-05-05 11:50 44.54698 7.61861 1257 ft 0 kts 352°
2026-05-05 11:57 44.54697 7.61873 1262 ft 0 kts 45°
2026-05-05 12:02 44.54701 7.61879 1254 ft 5 kts 47°
2026-05-05 12:02 44.54687 7.61959 1254 ft 13 kts 166°
2026-05-05 12:02 44.54605 7.61924 1258 ft 12 kts 210°
2026-05-05 12:02 44.54532 7.61864 1266 ft 12 kts 211°
2026-05-05 12:03 44.54461 7.61802 1261 ft 12 kts 212°
2026-05-05 12:03 44.54395 7.61740 1265 ft 11 kts 214°
2026-05-05 12:03 44.54329 7.61679 1264 ft 11 kts 213°
2026-05-05 12:03 44.54265 7.61620 1267 ft 11 kts 213°
2026-05-05 12:04 44.54201 7.61569 1268 ft 11 kts 201°
2026-05-05 12:04 44.54130 7.61569 1267 ft 10 kts 167°
2026-05-05 12:04 44.54061 7.61588 1272 ft 10 kts 171°
2026-05-05 12:04 44.53998 7.61615 1270 ft 3 kts 138°
2026-05-05 12:05 44.53997 7.61642 1270 ft 3 kts 72°
2026-05-05 12:05 44.54004 7.61652 1269 ft 0 kts 37°
2026-05-05 12:06 44.54146 7.61781 1270 ft 70 kts 32°
2026-05-05 12:06 44.54818 7.62371 1308 ft 150 kts 32°
2026-05-05 12:06 44.55723 7.63196 2196 ft 156 kts 33°
2026-05-05 12:07 44.56595 7.64081 3142 ft 158 kts 36°
2026-05-05 12:07 44.57633 7.64686 3847 ft 177 kts 359°
2026-05-05 12:07 44.58913 7.64557 4585 ft 195 kts 357°
2026-05-05 12:07 44.60306 7.64513 5385 ft 205 kts
2026-05-05 12:08 44.61768 7.64550 6207 ft 214 kts
2026-05-05 12:08 44.63316 7.64651 6936 ft 231 kts
2026-05-05 12:08 44.64951 7.64811 7886 ft 239 kts
2026-05-05 12:08 44.66626 7.65021 8863 ft 246 kts
2026-05-05 12:09 44.68356 7.65268 9832 ft 253 kts
2026-05-05 12:09 44.70126 7.65537 10712 ft 259 kts
2026-05-05 12:09 44.71939 7.65819 11646 ft 264 kts
2026-05-05 12:09 44.73746 7.66193 12546 ft 272 kts 15°
2026-05-05 12:10 44.75453 7.67526 13170 ft 295 kts 36°
2026-05-05 12:10 44.77114 7.69356 13886 ft 308 kts 37°
2026-05-05 12:10 44.78812 7.71241 14718 ft 314 kts 37°
2026-05-05 12:10 44.80552 7.73149 15603 ft 319 kts 37°
2026-05-05 12:11 44.82136 7.75348 16431 ft 325 kts 58°
2026-05-05 12:11 44.83002 7.78273 17315 ft 324 kts 83°
2026-05-05 12:11 44.83054 7.81404 18215 ft 321 kts 99°
2026-05-05 12:11 44.82710 7.84462 18933 ft 318 kts 117°
2026-05-05 12:12 44.81548 7.87072 19695 ft 308 kts 141°
2026-05-05 12:12 44.79901 7.88864 20476 ft 301 kts 158°
2026-05-05 12:12 44.78045 7.90229 21257 ft 304 kts 160°
2026-05-05 12:12 44.76143 7.91609 22020 ft 313 kts 154°
2026-05-05 12:13 44.74493 7.93766 22510 ft 342 kts 135°
2026-05-05 12:13 44.73013 7.96544 22661 ft 368 kts 131°
2026-05-05 12:13 44.71506 7.99610 22841 ft 392 kts 130°
2026-05-05 12:13 44.69936 8.02855 22984 ft 413 kts 130°
2026-05-05 12:14 44.68272 8.06264 23112 ft 431 kts 130°
2026-05-05 12:14 44.66532 8.09784 23262 ft 447 kts 130°
2026-05-05 12:14 44.64745 8.13362 23599 ft 456 kts 130°
2026-05-05 12:14 44.62913 8.17009 24066 ft 459 kts 130°
2026-05-05 12:15 44.61062 8.20680 24604 ft 461 kts 130°
2026-05-05 12:15 44.59203 8.24352 25076 ft 464 kts 131°
2026-05-05 12:15 44.57318 8.28062 25530 ft 467 kts 132°
2026-05-05 12:15 44.55174 8.31428 25921 ft 462 kts 144°
2026-05-05 12:16 44.52720 8.34323 26385 ft 461 kts 147°
2026-05-05 12:16 44.50212 8.37158 26836 ft 463 kts 147°
2026-05-05 12:16 44.47706 8.40009 27252 ft 467 kts 147°
2026-05-05 12:16 44.45228 8.42889 27655 ft 469 kts 146°
2026-05-05 12:17 44.42729 8.45839 28033 ft 473 kts 146°
2026-05-05 12:17 44.40219 8.48817 28401 ft 475 kts 146°
2026-05-05 12:17 44.37686 8.51821 28772 ft 478 kts 146°
2026-05-05 12:17 44.35151 8.54825 29200 ft 479 kts 146°
2026-05-05 12:18 44.32607 8.57839 29711 ft 478 kts 146°
2026-05-05 12:18 44.30084 8.60825 30246 ft 475 kts 146°
2026-05-05 12:18 44.27563 8.63804 30738 ft 473 kts 146°
2026-05-05 12:18 44.25065 8.66753 31221 ft 470 kts 146°
2026-05-05 12:19 44.22597 8.69661 31680 ft 469 kts 146°
2026-05-05 12:19 44.20115 8.72582 32125 ft 467 kts 146°
2026-05-05 12:19 44.17633 8.75511 32572 ft 466 kts 146°
2026-05-05 12:19 44.15172 8.78420 33004 ft 464 kts 146°
2026-05-05 12:20 44.12718 8.81317 33432 ft 463 kts 146°
2026-05-05 12:20 44.10250 8.84195 33850 ft 461 kts 147°
2026-05-05 12:20 44.07793 8.87037 34212 ft 460 kts 147°
2026-05-05 12:20 44.05326 8.89884 34507 ft 460 kts 147°
2026-05-05 12:21 44.02867 8.92722 34779 ft 461 kts 147°
2026-05-05 12:21 44.00429 8.95539 35044 ft 461 kts 147°
2026-05-05 12:21 43.97965 8.98369 35343 ft 459 kts 149°
2026-05-05 12:21 43.95260 9.00608 35570 ft 447 kts 164°
2026-05-05 12:22 43.92328 9.01807 35856 ft 436 kts 176°
2026-05-05 12:22 43.89338 9.02068 36127 ft 426 kts 189°
2026-05-05 12:22 43.86407 9.01647 36394 ft 424 kts 191°
2026-05-05 12:22 43.83461 9.01215 36624 ft 425 kts 190°
2026-05-05 12:23 43.80518 9.00833 36873 ft 426 kts 190°
2026-05-05 12:23 43.77557 9.00480 37145 ft 426 kts 189°
2026-05-05 12:23 43.74649 9.00145 37404 ft 426 kts 189°
2026-05-05 12:23 43.71701 8.99807 37654 ft 426 kts 189°
2026-05-05 12:24 43.68740 8.99466 37915 ft 426 kts 189°
2026-05-05 12:24 43.65793 8.99125 38178 ft 426 kts 189°
2026-05-05 12:24 43.62831 8.98781 38394 ft 426 kts 189°
2026-05-05 12:24 43.59881 8.98437 38630 ft 426 kts 189°
2026-05-05 12:25 43.56918 8.98093 38826 ft 426 kts 189°
2026-05-05 12:25 43.53963 8.97749 38949 ft 428 kts 190°
2026-05-05 12:25 43.48046 8.96996 38968 ft 429 kts 190°
2026-05-05 12:26 43.42124 8.96227 38966 ft 426 kts 190°
2026-05-05 12:26 43.36236 8.95493 38972 ft 424 kts 190°
2026-05-05 12:27 43.30362 8.94849 38974 ft 423 kts 190°
2026-05-05 12:27 43.24537 8.94207 38976 ft 423 kts 190°
2026-05-05 12:28 43.18671 8.93535 38977 ft 423 kts 190°
2026-05-05 12:28 43.12794 8.92836 38980 ft 425 kts 191°
2026-05-05 12:29 43.06897 8.92137 38978 ft 426 kts 191°
2026-05-05 12:29 43.00979 8.91442 38974 ft 427 kts 191°
2026-05-05 12:30 42.95100 8.90753 38968 ft 428 kts 191°
2026-05-05 12:30 42.89158 8.90063 38967 ft 429 kts 191°
2026-05-05 12:31 42.83209 8.89378 38962 ft 429 kts 191°
2026-05-05 12:31 42.77243 8.88740 38958 ft 430 kts 190°
2026-05-05 12:32 42.71315 8.88160 38958 ft 429 kts 191°
2026-05-05 12:32 42.65363 8.87456 38963 ft 429 kts 191°
2026-05-05 12:33 42.59423 8.86748 38964 ft 429 kts 191°
2026-05-05 12:33 42.53467 8.86054 38974 ft 430 kts 191°
2026-05-05 12:34 42.47500 8.85366 38963 ft 430 kts 191°
2026-05-05 12:34 42.41529 8.84681 38958 ft 430 kts 191°
2026-05-05 12:35 42.35606 8.84003 38941 ft 429 kts 192°
2026-05-05 12:35 42.29674 8.83324 38970 ft 428 kts 191°
2026-05-05 12:36 42.23723 8.82644 38982 ft 430 kts 191°
2026-05-05 12:36 42.17795 8.81984 38990 ft 430 kts 191°
2026-05-05 12:37 42.11832 8.81330 38991 ft 429 kts 191°
2026-05-05 12:37 42.05889 8.80672 39000 ft 429 kts 191°
2026-05-05 12:38 41.99925 8.80011 38986 ft 430 kts 191°
2026-05-05 12:38 41.93996 8.79358 38988 ft 430 kts 191°
2026-05-05 12:39 41.88035 8.78701 38990 ft 430 kts 191°
2026-05-05 12:39 41.82067 8.78045 38995 ft 430 kts 191°
2026-05-05 12:40 41.76082 8.77517 38988 ft 436 kts 185°
2026-05-05 12:40 41.70005 8.78014 38999 ft 438 kts 183°
2026-05-05 12:41 41.63966 8.78591 38990 ft 438 kts 183°
2026-05-05 12:41 41.57894 8.79130 38997 ft 437 kts 184°
2026-05-05 12:42 41.51816 8.79644 38985 ft 438 kts 184°
2026-05-05 12:42 41.45739 8.80155 38990 ft 437 kts 184°
2026-05-05 12:43 41.39704 8.80662 38989 ft 437 kts 184°
2026-05-05 12:43 41.33602 8.81174 38989 ft 437 kts 184°
2026-05-05 12:44 41.27565 8.81690 38989 ft 438 kts 184°
2026-05-05 12:44 41.21486 8.82215 38989 ft 438 kts 184°
2026-05-05 12:45 41.15401 8.82739 38982 ft 438 kts 184°
2026-05-05 12:45 41.09316 8.83261 38988 ft 438 kts 184°
2026-05-05 12:46 41.03274 8.83779 38990 ft 438 kts 184°
2026-05-05 12:46 40.97190 8.84298 38988 ft 438 kts 184°
2026-05-05 12:47 40.91104 8.84817 38988 ft 438 kts 184°
2026-05-05 12:47 40.85013 8.85335 38987 ft 438 kts 184°
2026-05-05 12:48 40.78963 8.85846 38988 ft 439 kts 184°
2026-05-05 12:48 40.72869 8.86349 38993 ft 439 kts 184°
2026-05-05 12:49 40.66768 8.86850 38982 ft 439 kts 184°
2026-05-05 12:49 40.60666 8.87352 38981 ft 440 kts 184°
2026-05-05 12:50 40.54562 8.87855 38988 ft 439 kts 184°
2026-05-05 12:50 40.48511 8.88351 38996 ft 440 kts 184°
2026-05-05 12:51 40.42401 8.88852 38995 ft 440 kts 184°
2026-05-05 12:51 40.36285 8.89352 39000 ft 440 kts 184°
2026-05-05 12:52 40.30171 8.89853 38995 ft 440 kts 184°
2026-05-05 12:52 40.24070 8.90353 38993 ft 439 kts 184°
2026-05-05 12:53 40.18013 8.90847 38995 ft 439 kts 184°
2026-05-05 12:53 40.11890 8.91343 38501 ft 446 kts 184°
2026-05-05 12:54 40.05734 8.91846 37145 ft 440 kts 184°
2026-05-05 12:54 40.02687 8.92096 36414 ft 439 kts 184°
2026-05-05 12:54 39.99633 8.92345 35673 ft 439 kts 184°
2026-05-05 12:55 39.96587 8.92590 34812 ft 441 kts 184°
2026-05-05 12:55 39.93554 8.92834 33989 ft 443 kts 184°
2026-05-05 12:55 39.90479 8.93083 32972 ft 445 kts 183°
2026-05-05 12:55 39.87374 8.93334 31857 ft 448 kts 183°
2026-05-05 12:56 39.84255 8.93646 30810 ft 454 kts 179°
2026-05-05 12:56 39.81123 8.94528 29674 ft 465 kts 170°
2026-05-05 12:56 39.78086 8.96004 28981 ft 463 kts 162°
2026-05-05 12:56 39.75219 8.97991 27663 ft 473 kts 154°
2026-05-05 12:57 39.72465 9.00350 26423 ft 477 kts 151°
2026-05-05 12:57 39.69727 9.02765 25380 ft 476 kts 152°
2026-05-05 12:57 39.67010 9.05102 24419 ft 472 kts 152°
2026-05-05 12:57 39.64268 9.07399 23472 ft 468 kts 153°
2026-05-05 12:58 39.61515 9.09669 22231 ft 467 kts 152°
2026-05-05 12:58 39.58789 9.11904 21231 ft 461 kts 152°
2026-05-05 12:58 39.56092 9.14114 20278 ft 454 kts 152°
2026-05-05 12:58 39.53449 9.16279 19369 ft 447 kts 151°
2026-05-05 12:59 39.50837 9.18420 18461 ft 440 kts 150°
2026-05-05 12:59 39.48280 9.20516 17702 ft 429 kts 150°
2026-05-05 12:59 39.45826 9.22529 16823 ft 420 kts 150°
2026-05-05 13:00 39.40916 9.26546 14787 ft 413 kts 150°
2026-05-05 13:00 39.38509 9.28513 13906 ft 407 kts 151°
2026-05-05 13:01 39.31493 9.34239 11234 ft 388 kts 150°
2026-05-05 13:01 39.29231 9.36084 10713 ft 375 kts 150°
2026-05-05 13:01 39.27102 9.37821 10579 ft 353 kts 150°
2026-05-05 13:01 39.25102 9.39450 10427 ft 335 kts 150°
2026-05-05 13:02 39.23182 9.41012 10271 ft 319 kts 151°
2026-05-05 13:02 39.21334 9.42515 10089 ft 307 kts 151°
2026-05-05 13:02 39.19567 9.43953 9940 ft 294 kts 151°
2026-05-05 13:02 39.17882 9.45326 9824 ft 280 kts 151°
2026-05-05 13:03 39.16211 9.46682 9343 ft 282 kts 151°
2026-05-05 13:03 39.14560 9.48022 9087 ft 276 kts 151°
2026-05-05 13:03 39.12954 9.49262 8940 ft 263 kts 160°
2026-05-05 13:03 39.11225 9.49661 8785 ft 247 kts 187°
2026-05-05 13:04 39.09614 9.49134 8471 ft 241 kts 207°
2026-05-05 13:04 39.08219 9.47982 8189 ft 238 kts 218°
2026-05-05 13:04 39.06924 9.46667 7894 ft 236 kts 219°
2026-05-05 13:04 39.05649 9.45358 7606 ft 234 kts 219°
2026-05-05 13:05 39.04371 9.44062 7318 ft 233 kts 219°
2026-05-05 13:05 39.03102 9.42786 7027 ft 231 kts 218°
2026-05-05 13:05 39.01851 9.41527 6741 ft 230 kts 221°
2026-05-05 13:05 39.01148 9.40484 6529 ft 230 kts 240°
2026-05-05 13:06 39.00734 9.37856 6156 ft 231 kts 275°
2026-05-05 13:06 39.01259 9.35911 5872 ft 234 kts 299°
2026-05-05 13:06 39.02213 9.34207 5584 ft 235 kts 305°
2026-05-05 13:06 39.03228 9.32568 5283 ft 235 kts 306°
2026-05-05 13:07 39.04243 9.30932 4999 ft 234 kts 306°
2026-05-05 13:07 39.04962 9.29886 4842 ft 233 kts 311°
2026-05-05 13:07 39.06095 9.28410 4557 ft 233 kts 312°
2026-05-05 13:07 39.07240 9.26938 4299 ft 232 kts 312°
2026-05-05 13:08 39.08369 9.25472 4028 ft 231 kts 312°
2026-05-05 13:08 39.09852 9.23520 3692 ft 229 kts 311°
2026-05-05 13:08 39.10924 9.22068 3470 ft 220 kts 313°
2026-05-05 13:08 39.11647 9.21171 3294 ft 214 kts 315°
2026-05-05 13:09 39.12721 9.19901 3022 ft 207 kts 316°
2026-05-05 13:09 39.13780 9.18668 2749 ft 201 kts 316°
2026-05-05 13:09 39.14789 9.17493 2509 ft 190 kts 316°
2026-05-05 13:09 39.15738 9.16387 2250 ft 179 kts 316°
2026-05-05 13:10 39.16630 9.15347 2020 ft 166 kts 316°
2026-05-05 13:10 39.17455 9.14383 1810 ft 155 kts 317°
2026-05-05 13:10 39.18221 9.13492 1665 ft 145 kts 316°
2026-05-05 13:10 39.18962 9.12628 1430 ft 141 kts 317°
2026-05-05 13:11 39.19678 9.11793 1241 ft 142 kts 316°
2026-05-05 13:11 39.20419 9.10931 1054 ft 144 kts 316°
2026-05-05 13:11 39.21158 9.10071 852 ft 141 kts 316°
2026-05-05 13:11 39.21851 9.09263 649 ft 127 kts 315°
2026-05-05 13:12 39.22500 9.08507 516 ft 127 kts 315°
2026-05-05 13:12 39.23161 9.07738 337 ft 127 kts 315°
2026-05-05 13:12 39.23819 9.06970 173 ft 130 kts 315°
2026-05-05 13:12 39.24502 9.06175 21 ft 132 kts 315°
2026-05-05 13:13 39.25034 9.05558 17 ft 61 kts 320°
2026-05-05 13:13 39.25218 9.05348 16 ft 21 kts 321°
2026-05-05 13:13 39.25299 9.05313 15 ft 6 kts 27°
2026-05-05 13:13 39.25332 9.05343 16 ft 6 kts 41°
2026-05-05 13:14 39.25361 9.05378 16 ft 6 kts 43°
2026-05-05 13:14 39.25390 9.05421 16 ft 8 kts 54°
2026-05-05 13:14 39.25407 9.05498 16 ft 11 kts 94°
2026-05-05 13:14 39.25380 9.05600 16 ft 13 kts 118°
2026-05-05 13:15 39.25359 9.05669 16 ft 6 kts 96°
2026-05-05 13:15 39.25358 9.05679 16 ft 2 kts 95°
2026-05-05 13:15 39.25366 9.05715 18 ft 6 kts 62°
2026-05-05 13:15 39.25380 9.05778 16 ft 4 kts 119°
2026-05-05 13:16 39.25377 9.05781 16 ft 1 kts 136°
2026-05-05 13:16 39.25374 9.05785 16 ft 1 kts 136°
2026-05-05 13:16 39.25371 9.05788 18 ft 1 kts 136°
2026-05-05 13:16 39.25352 9.05809 16 ft 6 kts 140°
2026-05-05 13:17 39.25337 9.05826 16 ft 0 kts 139°